1496890800.02,56009,17.25,73942.0,-2.17,-15.85,-13.23,0,*54
1496890801.23,56010,17.25,73940.5,-2.15,-15.75,-13.15,0,*54
1496890802.44,56011,17.25,73944.8,-2.15,-15.75,-13.11,0,*51
1496890803.7,56012,17.25,73942.8,-2.13,-15.81,-13.11,0,*5F
1496890804.9,56013,17.19,73938.8,-2.15,-15.75,-13.15,0,*57
1496890806.14,56014,17.25,73942.5,-2.15,-15.85,-13.23,0,*5A
1496890807.37,56015,17.19,73936.5,-2.17,-15.75,-13.23,0,*56
1496890808.63,56016,17.25,73942.0,-2.17,-15.85,-13.23,0,*5A
1496890809.88,56017,17.25,73942.0,-2.17,-15.85,-13.23,0,*5B
1496890811.14,56018,17.19,73940.5,-2.17,-15.85,-13.23,0,*54
1496890812.37,56019,17.25,73940.8,-2.15,-15.85,-13.23,0,*57
1496890813.62,56020,17.25,73942.0,-2.17,-15.85,-13.15,0,*5A
1496890814.9,56021,17.19,73938.0,-2.17,-15.85,-13.29,0,*54
1496890816.15,56022,17.25,73940.5,-2.19,-15.89,-13.29,0,*55
1496890817.41,56023,17.25,73940.0,-2.17,-15.85,-13.23,0,*5C
1496890818.64,56024,17.19,73940.8,-2.15,-15.89,-13.23,0,*55
1496890819.87,56025,17.25,73942.3,-2.17,-15.75,-13.15,0,*50
1496890821.12,56026,17.19,73940.3,-2.17,-15.85,-13.15,0,*5C
1496890822.35,56027,17.25,73940.8,-2.19,-15.89,-13.15,0,*5F
1496890823.58,56028,17.25,73942.3,-2.19,-15.81,-13.19,0,*54
1496890824.81,56029,17.25,73944.0,-2.17,-15.75,-13.23,0,*59
1496890826.07,56030,17.19,73940.0,-2.19,-15.89,-13.29,0,*56
1496890827.32,56031,17.25,73944.5,-2.17,-15.85,-13.11,0,*5E
1496890828.57,56032,17.19,73940.5,-2.17,-15.85,-13.23,0,*5C
1496890829.81,56033,17.19,73940.8,-2.19,-15.81,-13.19,0,*5E
1496890831.06,56034,17.19,73940.3,-2.17,-15.85,-13.15,0,*5F
1496890832.29,56035,17.19,73940.3,-2.17,-15.75,-13.23,0,*54
1496890833.51,56036,17.19,73942.3,-2.19,-15.81,-13.15,0,*57
1496890834.73,56037,17.25,73942.8,-2.19,-15.75,-13.19,0,*51
1496890835.96,56038,17.19,73940.5,-2.17,-15.75,-13.23,0,*59
1496890837.21,56039,17.25,73944.8,-2.19,-15.89,-13.33,0,*54
1496890838.47,56040,17.25,73946.3,-2.19,-15.89,-13.33,0,*5A
1496890839.72,56041,17.19,73940.3,-2.19,-15.89,-13.29,0,*50
1496890840.98,56042,17.25,73940.5,-2.19,-15.89,-13.33,0,*58
1496890842.23,56043,17.19,73938.3,-2.19,-15.89,-13.33,0,*59
1496890843.48,56044,17.19,73942.0,-2.17,-15.85,-13.15,0,*58
1496890844.71,56045,17.19,73944.0,-2.19,-15.81,-13.19,0,*5F
1496890845.98,56046,17.19,73942.8,-2.21,-15.81,-13.19,0,*57
1496890847.2,56047,17.19,73940.8,-2.19,-15.89,-13.15,0,*59
1496890848.45,56048,17.25,73942.8,-2.21,-15.81,-13.15,0,*55
1496890849.72,56049,17.19,73940.8,-2.21,-15.89,-13.19,0,*50
1496890850.95,56050,17.25,73944.5,-2.19,-15.89,-13.19,0,*53
1496890852.19,56051,17.19,73940.3,-2.19,-15.81,-13.19,0,*5A
1496890853.39,56052,17.19,73942.5,-2.19,-15.75,-13.15,0,*5E
1496890854.59,56053,17.25,73944.0,-2.19,-15.67,-13.07,0,*5F
1496890855.81,56054,17.25,73944.0,-2.19,-15.81,-13.15,0,*53
1496890857.01,56055,17.19,73940.5,-2.19,-15.75,-13.07,0,*5A
1496890858.21,56056,17.25,73944.0,-2.19,-15.67,-13.15,0,*59
1496890859.44,56057,17.19,73942.3,-2.19,-15.81,-13.19,0,*5C
1496890860.67,56058,17.19,73944.0,-2.19,-15.81,-13.19,0,*53
1496890861.92,56059,17.19,73942.8,-2.19,-15.81,-13.29,0,*51
1496890863.15,56060,17.25,73944.5,-2.19,-15.81,-13.15,0,*54
1496890864.34,56061,17.25,73948.3,-2.19,-15.67,-13.15,0,*5D
1496890865.59,56062,17.19,73944.3,-2.21,-15.75,-13.19,0,*5A
1496890866.82,56063,17.25,73944.3,-2.23,-15.81,-13.23,0,*5B
1496890868.05,56064,17.25,73942.8,-2.19,-15.81,-13.19,0,*5C
1496890869.25,56065,17.19,73942.0,-2.19,-15.75,-13.15,0,*5A
1496890870.49,56066,17.25,73944.5,-2.19,-15.81,-13.19,0,*5E
1496890871.77,56067,17.19,73942.0,-2.21,-15.89,-13.29,0,*5F
1496890873.03,56068,17.19,73942.3,-2.23,-15.85,-13.37,0,*51
1496890874.29,56069,17.19,73944.0,-2.21,-15.81,-13.19,0,*5A
1496890875.57,56070,17.19,73944.8,-2.21,-15.81,-13.33,0,*5A
1496890876.83,56071,17.25,73944.8,-2.21,-15.95,-13.37,0,*5A
1496890878.08,56072,17.25,73946.5,-2.21,-15.95,-13.37,0,*59
1496890879.28,56073,17.19,73940.0,-2.23,-15.99,-13.51,0,*56
1496890880.52,56074,17.19,73944.3,-2.23,-16.13,-13.43,0,*53
1496890881.75,56075,17.19,73944.0,-2.23,-16.09,-13.43,0,*59
1496890882.99,56076,17.19,73942.3,-2.23,-15.95,-13.37,0,*5F
1496890884.23,56077,17.19,73940.8,-2.27,-15.85,-13.19,0,*57
1496890885.44,56078,17.19,73940.0,-2.27,-15.95,-13.23,0,*50
1496890886.67,56079,17.19,73940.5,-2.27,-15.85,-13.23,0,*50
1496890887.91,56080,17.19,73942.8,-2.27,-15.81,-13.19,0,*5B
1496890889.15,56081,17.19,73940.0,-2.27,-15.81,-13.19,0,*5A
1496890890.38,56082,17.25,73940.0,-2.27,-15.95,-13.33,0,*54
1496890891.62,56083,17.25,73940.8,-2.27,-15.95,-13.33,0,*55
1496890892.86,56084,17.19,73942.3,-2.27,-15.85,-13.23,0,*52
1496890894.14,56085,17.25,73946.0,-2.29,-15.89,-13.33,0,*50
1496890895.38,56086,17.25,73944.5,-2.27,-15.85,-13.19,0,*59
1496890896.59,56087,17.25,73944.5,-2.27,-15.67,-13.11,0,*5C
1496890897.83,56088,17.19,73940.0,-2.27,-15.81,-13.19,0,*53
1496890899.06,56089,17.19,73944.5,-2.27,-15.81,-13.23,0,*5B
1496890900.29,56090,17.19,73942.3,-2.27,-15.95,-13.37,0,*53
1496890901.55,56091,17.19,73942.0,-2.27,-15.85,-13.33,0,*57
1496890902.79,56092,17.25,73946.5,-2.27,-15.95,-13.33,0,*55
1496890904.02,56093,17.19,73942.8,-2.27,-15.81,-13.23,0,*50
1496890905.24,56094,17.19,73944.3,-2.27,-15.71,-13.19,0,*51
1496890906.47,56095,17.19,73944.3,-2.29,-15.75,-13.23,0,*53
1496890907.68,56096,17.19,73940.3,-2.27,-15.71,-13.11,0,*5B
1496890908.89,56097,17.19,73942.5,-2.27,-15.71,-13.11,0,*5A
1496890910.1,56098,17.19,73940.0,-2.27,-15.71,-13.11,0,*55
1496890911.38,56099,17.25,73946.0,-2.29,-15.89,-13.29,0,*56
1496890912.66,56100,17.19,73942.0,-2.29,-15.89,-13.29,0,*57
1496890913.92,56101,17.25,73942.5,-2.29,-15.75,-13.29,0,*55
1496890915.14,56102,17.19,73940.3,-2.27,-15.71,-13.19,0,*5F
1496890916.35,56103,17.19,73942.8,-2.27,-15.71,-13.19,0,*5E
1496890917.61,56104,17.19,73942.3,-2.29,-15.85,-13.23,0,*55
1496890918.84,56105,17.19,73942.8,-2.27,-15.81,-13.23,0,*5E
1496890920.05,56106,17.19,73940.0,-2.27,-15.71,-13.23,0,*52
1496890921.28,56107,17.25,73942.8,-2.27,-15.81,-13.23,0,*5C
1496890922.52,56108,17.19,73942.8,-2.27,-15.85,-13.23,0,*57
1496890923.76,56109,17.19,73944.8,-2.27,-15.85,-13.19,0,*5F
1496890925.02,56110,17.25,73946.0,-2.27,-15.81,-13.33,0,*5B
1496890926.3,56111,17.19,73940.5,-2.29,-15.85,-13.29,0,*5B
1496890927.56,56112,17.19,73944.8,-2.29,-15.85,-13.23,0,*52
1496890928.84,56113,17.19,73944.5,-2.29,-15.85,-13.29,0,*59
1496890930.09,56114,17.19,73946.3,-2.29,-15.99,-13.37,0,*5C
1496890931.34,56115,17.25,73948.0,-2.29,-15.99,-13.29,0,*52
1496890932.6,56116,17.19,73944.8,-2.29,-15.85,-13.23,0,*56
1496890933.88,56117,17.19,73946.5,-2.29,-15.85,-13.37,0,*52
1496890935.12,56118,17.19,73940.3,-2.29,-15.75,-13.23,0,*57
1496890936.4,56119,17.25,73950.0,-2.29,-15.85,-13.29,0,*53
1496890937.63,56120,17.19,73946.3,-2.29,-15.71,-13.23,0,*58
1496890938.87,56121,17.19,73944.0,-2.29,-15.75,-13.23,0,*5D
1496890940.11,56122,17.19,73944.3,-2.31,-15.75,-13.37,0,*52
1496890941.34,56123,17.19,73944.5,-2.33,-15.95,-13.43,0,*5C
1496890942.6,56124,17.19,73944.8,-2.31,-15.89,-13.37,0,*57
1496890943.86,56125,17.25,73944.8,-2.31,-15.89,-13.37,0,*56
1496890945.12,56126,17.19,73940.8,-2.31,-15.89,-13.29,0,*5A
1496890946.33,56127,17.19,73946.5,-2.31,-15.95,-13.43,0,*5A
1496890947.62,56128,17.19,73942.0,-2.33,-15.89,-13.33,0,*5D
1496890948.88,56129,17.19,73944.3,-2.31,-15.89,-13.37,0,*5A
1496890950.12,56130,17.19,73944.8,-2.31,-15.95,-13.33,0,*5B
1496890951.41,56131,17.19,73946.0,-2.33,-15.89,-13.33,0,*55
1496890952.65,56132,17.19,73944.0,-2.33,-15.75,-13.19,0,*5D
1496890953.91,56133,17.19,73944.8,-2.33,-15.75,-13.29,0,*5F
1496890955.13,56134,17.19,73946.0,-2.31,-15.75,-13.15,0,*55
1496890956.34,56135,17.19,73946.3,-2.31,-15.75,-13.23,0,*51
1496890957.56,56136,17.19,73944.3,-2.31,-15.75,-13.23,0,*52
1496890958.77,56137,17.19,73944.8,-2.31,-15.71,-13.15,0,*52
1496890960.0,56138,17.19,73944.8,-2.33,-16.03,-13.43,0,*5A
1496890961.22,56139,17.19,73940.8,-2.33,-15.95,-13.47,0,*53
1496890962.48,56140,17.19,73944.3,-2.33,-15.89,-13.43,0,*54
1496890963.76,56141,17.19,73944.3,-2.33,-15.81,-13.29,0,*51
1496890965.04,56142,17.19,73944.3,-2.33,-15.81,-13.29,0,*52
1496890966.3,56143,17.19,73946.5,-2.33,-15.75,-13.29,0,*58
1496890967.59,56144,17.19,73944.5,-2.33,-15.89,-13.33,0,*57
1496890968.81,56145,17.19,73946.0,-2.35,-15.75,-13.19,0,*5B
1496890970.04,56146,17.19,73944.8,-2.33,-15.67,-13.15,0,*51
1496890971.3,56147,17.19,73942.5,-2.33,-15.75,-13.29,0,*5C
1496890972.56,56148,17.19,73946.3,-2.35,-15.81,-13.29,0,*5E
1496890973.78,56149,17.19,73942.3,-2.35,-15.81,-13.43,0,*53
1496890975.07,56150,17.19,73944.3,-2.37,-15.85,-13.37,0,*5E
1496890976.33,56151,17.19,73940.8,-2.35,-15.89,-13.33,0,*55
1496890977.54,56152,17.19,73940.3,-2.35,-15.95,-13.43,0,*5C
1496890978.74,56153,17.19,73942.5,-2.35,-15.95,-13.47,0,*59
1496890979.94,56154,17.19,73944.5,-2.35,-16.03,-13.47,0,*52
1496890981.21,56155,17.19,73942.0,-2.37,-16.09,-13.51,0,*5C
1496890982.44,56156,17.19,73940.8,-2.35,-15.89,-13.43,0,*55
1496890983.67,56157,17.19,73942.8,-2.37,-15.95,-13.47,0,*5F
1496890984.93,56158,17.19,73944.0,-2.35,-15.89,-13.33,0,*5C
1496890986.16,56159,17.19,73946.3,-2.35,-15.89,-13.43,0,*5A
1496890987.41,56160,17.19,73944.8,-2.37,-15.85,-13.47,0,*5A
1496890988.64,56161,17.19,73942.8,-2.37,-15.95,-13.47,0,*5A
1496890989.88,56162,17.19,73944.3,-2.37,-15.95,-13.51,0,*5E
1496890991.11,56163,17.19,73944.3,-2.37,-15.99,-13.51,0,*53
1496890992.36,56164,17.19,73944.3,-2.37,-15.85,-13.47,0,*5E
1496890993.65,56165,17.19,73946.0,-2.37,-15.85,-13.37,0,*58
1496890994.9,56166,17.19,73944.8,-2.37,-15.85,-13.47,0,*5C
1496890996.14,56167,17.19,73944.8,-2.37,-15.95,-13.51,0,*5B
1496890997.39,56168,17.19,73944.3,-2.37,-15.99,-13.37,0,*58
1496890998.59,56169,17.19,73944.0,-2.39,-15.99,-13.43,0,*54
1496890999.79,56170,17.19,73946.0,-2.39,-15.99,-13.43,0,*5C
1496891001.03,56171,17.19,73944.8,-2.39,-15.89,-13.43,0,*5C
1496891002.26,56172,17.19,73946.3,-2.39,-15.89,-13.43,0,*5F
1496891003.55,56173,17.19,73940.3,-2.41,-15.85,-13.37,0,*5E
1496891004.78,56174,17.19,73946.5,-2.39,-15.85,-13.43,0,*55
1496891006.02,56175,17.19,73944.0,-2.39,-15.89,-13.43,0,*58
1496891007.22,56176,17.19,73946.0,-2.39,-15.99,-13.51,0,*59
1496891008.48,56177,17.19,73944.3,-2.41,-15.89,-13.43,0,*55
1496891009.73,56178,17.19,73944.5,-2.41,-15.89,-13.43,0,*5A
1496891010.97,56179,17.19,73946.0,-2.39,-15.85,-13.43,0,*58
1496891012.17,56180,17.19,73946.0,-2.39,-15.99,-13.43,0,*53
1496891013.39,56181,17.19,73944.8,-2.41,-15.99,-13.43,0,*5D
1496891014.59,56182,17.19,73946.3,-2.39,-15.99,-13.43,0,*51
1496891015.87,56183,17.19,73946.0,-2.41,-15.85,-13.29,0,*5E
1496891017.16,56184,17.19,73944.5,-2.41,-15.89,-13.37,0,*5A
1496891018.42,56185,17.25,73948.3,-2.39,-15.89,-13.37,0,*54
1496891019.65,56186,17.19,73944.8,-2.39,-15.99,-13.29,0,*59
1496891020.87,56187,17.19,73942.8,-2.41,-15.99,-13.51,0,*58
1496891022.09,56188,17.19,73946.8,-2.41,-15.99,-13.43,0,*54
1496891023.35,56189,17.19,73942.8,-2.41,-15.89,-13.43,0,*54
1496891024.58,56190,17.19,73946.3,-2.41,-15.99,-13.51,0,*5E
1496891025.8,56191,17.19,73946.3,-2.41,-15.99,-13.51,0,*5F
1496891027.03,56192,17.19,73946.3,-2.41,-16.03,-13.51,0,*5C
1496891028.27,56193,17.19,73946.3,-2.41,-16.03,-13.51,0,*5D
1496891029.49,56194,17.19,73946.5,-2.41,-15.99,-13.43,0,*59
1496891030.75,56195,17.19,73944.5,-2.41,-16.03,-13.61,0,*58
1496891032.01,56196,17.19,73946.8,-2.43,-16.17,-13.61,0,*5C
1496891033.27,56197,17.19,73946.0,-2.43,-16.17,-13.61,0,*5D
1496891034.51,56198,17.19,73944.8,-2.43,-16.17,-13.65,0,*56
1496891035.77,56199,17.19,73944.5,-2.43,-16.17,-13.61,0,*53
1496891037.03,56200,17.19,73948.8,-2.43,-16.09,-13.61,0,*5F
1496891038.27,56201,17.19,73944.0,-2.43,-16.17,-13.65,0,*55
1496891039.5,56202,17.19,73950.3,-2.45,-16.17,-13.65,0,*50
1496891040.73,56203,17.19,73946.0,-2.45,-16.17,-13.65,0,*51
1496891041.96,56204,17.19,73946.3,-2.43,-16.17,-13.73,0,*57
1496891043.22,56205,17.19,73944.3,-2.45,-16.17,-13.61,0,*53
1496891044.45,56206,17.19,73946.8,-2.45,-16.09,-13.65,0,*5B
1496891045.69,56207,17.19,73944.5,-2.45,-16.09,-13.55,0,*59
1496891046.95,56208,17.19,73946.0,-2.49,-16.09,-13.61,0,*5D
1496891048.14,56209,17.19,73944.3,-2.45,-16.03,-13.47,0,*5E
1496891049.38,56210,17.19,73948.3,-2.45,-16.09,-13.55,0,*5F
1496891050.64,56211,17.19,73946.0,-2.45,-16.09,-13.61,0,*59
1496891051.84,56212,17.19,73948.8,-2.45,-15.95,-13.55,0,*5B
1496891053.08,56213,17.19,73944.0,-2.45,-16.03,-13.61,0,*51
1496891054.3,56214,17.19,73950.0,-2.49,-16.13,-13.65,0,*5F
1496891055.56,56215,17.19,73948.3,-2.51,-16.09,-13.65,0,*5C
1496891056.85,56216,17.19,73944.8,-2.51,-16.09,-13.61,0,*5B
1496891058.13,56217,17.19,73946.3,-2.51,-16.09,-13.61,0,*5A
1496891059.36,56218,17.19,73946.0,-2.49,-16.09,-13.51,0,*5F
1496891060.56,56219,17.19,73944.5,-2.49,-15.95,-13.47,0,*5F
1496891061.84,56220,17.19,73944.8,-2.51,-15.85,-13.37,0,*5A
1496891063.11,56221,17.19,73944.5,-2.51,-15.85,-13.37,0,*5B
1496891064.36,56222,17.19,73942.3,-2.51,-15.85,-13.47,0,*5F
1496891065.58,56223,17.19,73942.3,-2.51,-15.95,-13.47,0,*5F
1496891066.84,56224,17.19,73946.0,-2.49,-16.13,-13.61,0,*58
1496891068.09,56225,17.19,73946.5,-2.51,-15.99,-13.61,0,*51
1496891069.32,56226,17.19,73946.5,-2.49,-16.09,-13.51,0,*52
1496891070.54,56227,17.19,73944.8,-2.51,-15.99,-13.51,0,*50
1496891071.74,56228,17.19,73946.8,-2.49,-15.99,-13.51,0,*56
1496891072.93,56229,17.19,73948.0,-2.49,-15.99,-13.47,0,*50
1496891074.15,56230,17.19,73944.0,-2.51,-15.95,-13.51,0,*5A
1496891075.4,56231,17.19,73944.0,-2.51,-15.85,-13.47,0,*5D
1496891076.62,56232,17.19,73946.5,-2.51,-15.99,-13.51,0,*54
1496891077.88,56233,17.19,73946.8,-2.51,-16.09,-13.65,0,*58
1496891079.13,56234,17.19,73944.8,-2.51,-16.13,-13.69,0,*58
1496891080.38,56235,17.19,73944.8,-2.51,-16.23,-13.65,0,*56
1496891081.65,56236,17.19,73944.5,-2.51,-16.23,-13.79,0,*58
1496891082.91,56237,17.19,73946.3,-2.51,-16.13,-13.65,0,*57
1496891084.16,56238,17.19,73946.3,-2.51,-16.13,-13.69,0,*54
1496891085.39,56239,17.19,73948.0,-2.53,-16.17,-13.69,0,*53
1496891086.64,56240,17.19,73946.0,-2.55,-16.17,-13.69,0,*5B
1496891087.87,56241,17.19,73944.3,-2.53,-16.13,-13.69,0,*58
1496891089.07,56242,17.19,73946.3,-2.53,-15.99,-13.55,0,*55
1496891090.29,56243,17.19,73944.8,-2.55,-16.03,-13.69,0,*5D
1496891091.49,56244,17.19,73946.8,-2.53,-16.03,-13.69,0,*5C
1496891092.75,56245,17.19,73946.8,-2.55,-16.17,-13.65,0,*52
1496891093.97,56246,17.19,73944.5,-2.55,-16.03,-13.55,0,*57
1496891095.17,56247,17.19,73946.8,-2.53,-15.99,-13.55,0,*50
1496891096.37,56248,17.19,73948.0,-2.53,-15.99,-13.65,0,*5C
1496891097.63,56249,17.19,73946.3,-2.55,-16.13,-13.65,0,*5A
1496891098.83,56250,17.19,73944.5,-2.53,-16.03,-13.55,0,*56
1496891100.08,56251,17.19,73946.8,-2.55,-15.89,-13.43,0,*57
1496891101.34,56252,17.19,73946.5,-2.55,-16.13,-13.65,0,*50
1496891102.59,56253,17.19,73946.5,-2.55,-16.13,-13.69,0,*5D
1496891103.85,56254,17.19,73944.5,-2.55,-16.13,-13.55,0,*55
1496891105.08,56255,17.19,73946.0,-2.55,-16.03,-13.65,0,*56
1496891106.31,56256,17.19,73944.8,-2.55,-16.03,-13.55,0,*56
1496891107.53,56257,17.19,73948.0,-2.55,-15.99,-13.51,0,*53
1496891108.75,56258,17.19,73940.8,-2.55,-15.99,-13.51,0,*5C
1496891109.98,56259,17.19,73950.8,-2.55,-16.03,-13.55,0,*59
1496891111.21,56260,17.19,73944.8,-2.55,-16.03,-13.51,0,*57
1496891112.43,56261,17.19,73946.3,-2.55,-15.99,-13.51,0,*56
1496891113.69,56262,17.19,73944.8,-2.55,-16.13,-13.69,0,*5F
1496891114.92,56263,17.19,73944.8,-2.55,-16.03,-13.55,0,*50
1496891116.12,56264,17.19,73942.8,-2.57,-15.95,-13.55,0,*59
1496891117.32,56265,17.19,73946.3,-2.57,-16.03,-13.55,0,*54
1496891118.52,56266,17.19,73946.3,-2.57,-16.03,-13.55,0,*57
1496891119.72,56267,17.19,73946.8,-2.57,-15.95,-13.47,0,*59
1496891120.97,56268,17.19,73946.8,-2.57,-16.17,-13.61,0,*5B
1496891122.22,56269,17.19,73948.8,-2.57,-16.17,-13.79,0,*53
1496891123.47,56270,17.19,73946.0,-2.59,-16.27,-13.93,0,*52
1496891124.69,56271,17.19,73944.5,-2.57,-16.23,-13.73,0,*57
1496891125.92,56272,17.19,73944.8,-2.57,-16.23,-13.73,0,*54
1496891127.14,56273,17.19,73948.5,-2.57,-16.17,-13.69,0,*59
1496891128.39,56274,17.19,73946.3,-2.59,-16.37,-13.83,0,*56
1496891129.65,56275,17.19,73946.5,-2.59,-16.23,-13.73,0,*5D
1496891130.91,56276,17.19,73946.8,-2.59,-16.13,-13.65,0,*5A
1496891132.16,56277,17.19,73944.3,-2.59,-15.99,-13.61,0,*5E
1496891133.41,56278,17.19,73946.3,-2.59,-15.99,-13.61,0,*51
1496891134.63,56279,17.19,73946.0,-2.59,-15.99,-13.51,0,*53
1496891135.89,56280,17.19,73940.5,-2.57,-16.13,-13.61,0,*59
1496891137.12,56281,17.19,73944.8,-2.61,-16.13,-13.73,0,*5E
1496891138.33,56282,17.19,73948.8,-2.57,-16.03,-13.55,0,*5D
1496891139.55,56283,17.19,73946.0,-2.59,-15.99,-13.51,0,*56
1496891140.81,56284,17.19,73948.3,-2.59,-16.09,-13.51,0,*5B
1496891142.1,56285,17.19,73944.5,-2.59,-16.09,-13.61,0,*59
1496891143.36,56286,17.19,73948.3,-2.59,-16.13,-13.65,0,*55
1496891144.64,56287,17.19,73946.5,-2.59,-16.27,-13.79,0,*5E
1496891145.86,56288,17.19,73944.5,-2.57,-16.09,-13.69,0,*52
1496891147.15,56289,17.19,73944.0,-2.59,-16.09,-13.61,0,*55
1496891148.35,56290,17.19,73948.3,-2.57,-15.95,-13.55,0,*52
1496891149.61,56291,17.19,73946.8,-2.59,-16.09,-13.65,0,*58
1496891150.84,56292,17.19,73948.3,-2.61,-16.23,-13.65,0,*58
1496891152.09,56293,17.19,73946.3,-2.59,-16.23,-13.73,0,*55
1496891153.33,56294,17.19,73946.0,-2.61,-16.13,-13.65,0,*5D
1496891154.61,56295,17.19,73946.3,-2.63,-16.13,-13.61,0,*5A
1496891155.84,56296,17.19,73948.0,-2.61,-16.23,-13.65,0,*5C
1496891157.12,56297,17.19,73944.3,-2.63,-16.31,-13.83,0,*54
1496891158.34,56298,17.19,73940.8,-2.61,-16.23,-13.73,0,*55
1496891159.59,56299,17.19,73944.3,-2.61,-16.27,-13.79,0,*5A
1496891160.85,56300,17.19,73946.5,-2.63,-16.41,-13.83,0,*5C
1496891162.13,56301,17.19,73946.0,-2.63,-16.31,-13.97,0,*5F
1496891163.4,56302,17.19,73944.5,-2.63,-16.41,-14.01,0,*53
1496891164.67,56303,17.19,73942.5,-2.63,-16.31,-13.83,0,*58
1496891165.93,56304,17.19,73944.3,-2.63,-16.41,-13.87,0,*5C
1496891167.2,56305,17.19,73944.0,-2.63,-16.41,-13.97,0,*5C
1496891168.47,56306,17.19,73946.5,-2.63,-16.27,-13.79,0,*5F
1496891169.75,56307,17.19,73944.8,-2.63,-16.27,-13.79,0,*5E
1496891171.0,56308,17.19,73946.0,-2.65,-16.31,-13.87,0,*51
1496891172.22,56309,17.19,73944.3,-2.67,-16.45,-13.93,0,*54
1496891173.45,56310,17.19,73946.5,-2.67,-16.45,-13.93,0,*5C
1496891174.7,56311,17.19,73946.5,-2.65,-16.23,-13.83,0,*5E
1496891175.95,56312,17.19,73946.0,-2.65,-16.27,-13.79,0,*5C
1496891177.2,56313,17.19,73946.8,-2.67,-16.45,-13.87,0,*5A
1496891178.45,56314,17.19,73944.8,-2.65,-16.31,-13.83,0,*58
1496891179.68,56315,17.19,73944.8,-2.65,-16.17,-13.65,0,*55
1496891180.91,56316,17.19,73944.8,-2.65,-16.13,-13.55,0,*51
1496891182.17,56317,17.19,73944.0,-2.67,-16.17,-13.69,0,*59
1496891183.42,56318,17.19,73946.5,-2.65,-16.17,-13.83,0,*50
1496891184.68,56319,17.19,73946.5,-2.67,-16.37,-13.87,0,*55
1496891185.93,56320,17.19,73946.8,-2.67,-16.37,-13.87,0,*5F
1496891187.19,56321,17.19,73946.8,-2.67,-16.37,-13.87,0,*5E
1496891188.44,56322,17.19,73946.3,-2.67,-16.09,-13.69,0,*50
1496891189.67,56323,17.19,73948.5,-2.65,-16.13,-13.65,0,*54
1496891190.95,56324,17.19,73948.8,-2.67,-16.31,-13.83,0,*59
1496891192.23,56325,17.19,73946.8,-2.67,-16.23,-13.83,0,*5B
1496891193.51,56326,17.19,73948.5,-2.67,-16.23,-13.83,0,*58
1496891194.74,56327,17.19,73946.0,-2.73,-16.37,-13.97,0,*5C
1496891195.98,56328,17.19,73944.0,-2.69,-16.45,-13.83,0,*58
1496891197.18,56329,17.19,73944.0,-2.73,-16.41,-13.93,0,*57
1496891198.43,56330,17.19,73946.5,-2.69,-16.31,-13.87,0,*56
1496891199.69,56331,17.19,73946.0,-2.69,-16.31,-13.83,0,*53
1496891200.93,56332,17.19,73946.5,-2.69,-16.17,-13.73,0,*5B
1496891202.18,56333,17.19,73946.5,-2.69,-16.31,-13.83,0,*51
1496891203.38,56334,17.19,73944.8,-2.73,-16.37,-13.93,0,*5A
1496891204.59,56335,17.19,73946.5,-2.69,-16.37,-13.93,0,*50
1496891205.81,56336,17.19,73946.3,-2.73,-16.37,-13.79,0,*5C
1496891207.04,56337,17.19,73942.8,-2.73,-16.37,-13.79,0,*5D
1496891208.27,56338,17.19,73946.0,-2.73,-16.23,-13.73,0,*5D
1496891209.52,56339,17.19,73944.3,-2.75,-16.37,-13.87,0,*54
1496891210.79,56340,17.19,73946.0,-2.75,-16.13,-13.65,0,*50
1496891212.04,56341,17.19,73944.0,-2.73,-16.27,-13.87,0,*5C
1496891213.3,56342,17.19,73946.0,-2.75,-16.37,-13.97,0,*59
1496891214.54,56343,17.19,73944.3,-2.75,-16.41,-13.93,0,*5D
1496891215.79,56344,17.19,73944.0,-2.75,-16.37,-13.79,0,*5F
1496891217.05,56345,17.19,73946.0,-2.75,-16.37,-13.87,0,*5F
1496891218.29,56346,17.19,73944.8,-2.75,-16.41,-13.93,0,*58
1496891219.54,56347,17.19,73950.0,-2.77,-16.41,-13.83,0,*5A
1496891220.82,56348,17.19,73944.8,-2.75,-16.27,-13.79,0,*52
1496891222.08,56349,17.19,73946.3,-2.75,-16.13,-13.65,0,*59
1496891223.35,56350,17.19,73944.5,-2.75,-16.13,-13.65,0,*51
1496891224.6,56351,17.19,73946.5,-2.75,-15.99,-13.61,0,*55
1496891225.89,56352,17.19,73948.3,-2.75,-16.09,-13.61,0,*5C
1496891227.18,56353,17.19,73946.5,-2.75,-16.09,-13.61,0,*5D
1496891228.46,56354,17.19,73948.8,-2.75,-16.23,-13.79,0,*5B
1496891229.71,56355,17.19,73946.8,-2.77,-16.17,-13.69,0,*5E
1496891230.99,56356,17.19,73944.3,-2.77,-16.27,-13.79,0,*5F
1496891232.24,56357,17.19,73946.8,-2.75,-16.23,-13.73,0,*52
1496891233.5,56358,17.19,73944.0,-2.77,-16.17,-13.65,0,*5F
1496891234.75,56359,17.19,73944.5,-2.75,-15.99,-13.61,0,*5D
1496891236.03,56360,17.19,73946.8,-2.77,-16.17,-13.79,0,*59
1496891237.3,56361,17.19,73946.8,-2.77,-16.27,-13.79,0,*5B
1496891238.56,56362,17.19,73948.0,-2.75,-16.23,-13.73,0,*54
1496891239.81,56363,17.19,73946.3,-2.77,-16.13,-13.69,0,*5F
1496891241.08,56364,17.19,73944.5,-2.77,-16.31,-13.79,0,*59
1496891242.34,56365,17.19,73946.5,-2.77,-16.41,-13.83,0,*5A
1496891243.61,56366,17.19,73946.0,-2.77,-16.31,-13.83,0,*5E
1496891244.86,56367,17.19,73946.5,-2.77,-16.27,-13.65,0,*50
1496891246.11,56368,17.19,73948.8,-2.79,-16.27,-13.79,0,*5C
1496891247.37,56369,17.19,73944.3,-2.79,-16.27,-13.83,0,*58
1496891248.64,56370,17.19,73948.3,-2.81,-16.31,-13.83,0,*50
1496891249.89,56371,17.19,73944.3,-2.79,-16.27,-13.79,0,*54
1496891251.12,56372,17.19,73946.8,-2.79,-16.41,-13.83,0,*52
1496891252.37,56373,17.19,73950.0,-2.81,-16.31,-13.73,0,*5C
1496891253.59,56374,17.19,73946.8,-2.79,-16.27,-13.69,0,*50
1496891254.8,56375,17.19,73946.8,-2.79,-16.03,-13.65,0,*5B
1496891256.05,56376,17.19,73946.8,-2.81,-16.17,-13.69,0,*56
1496891257.28,56377,17.19,73946.0,-2.79,-16.17,-13.69,0,*50
1496891258.5,56378,17.19,73946.5,-2.79,-16.27,-13.69,0,*5C
1496891259.73,56379,17.19,73948.5,-2.79,-16.17,-13.69,0,*5E
1496891261.0,56380,17.19,73946.8,-2.81,-16.31,-13.83,0,*5F
1496891262.25,56381,17.19,73944.3,-2.81,-16.37,-13.87,0,*5C
1496891263.5,56382,17.19,73946.5,-2.81,-16.45,-13.87,0,*5A
1496891264.75,56383,17.19,73944.3,-2.81,-16.17,-13.73,0,*57
1496891266.0,56384,17.19,73950.8,-2.81,-16.31,-13.73,0,*54
1496891267.25,56385,17.19,73944.5,-2.81,-16.37,-13.83,0,*5C
1496891268.5,56386,17.19,73944.5,-2.81,-16.23,-13.69,0,*5E
1496891269.72,56387,17.19,73948.5,-2.79,-16.27,-13.69,0,*5C
1496891270.95,56388,17.19,73946.5,-2.79,-16.27,-13.69,0,*53
1496891272.19,56389,17.19,73944.3,-2.81,-16.23,-13.69,0,*51
1496891273.44,56390,17.19,73944.8,-2.81,-16.23,-13.69,0,*59
1496891274.69,56391,17.19,73946.8,-2.81,-16.17,-13.69,0,*5F
1496891275.94,56392,17.19,73946.0,-2.81,-16.17,-13.69,0,*5C
1496891277.18,56393,17.19,73946.3,-2.81,-16.23,-13.69,0,*5A
1496891278.45,56394,17.19,73944.0,-2.83,-16.13,-13.61,0,*54
1496891279.68,56395,17.19,73944.0,-2.83,-16.09,-13.65,0,*5A
1496891280.91,56396,17.19,73944.3,-2.83,-16.13,-13.65,0,*52
1496891282.13,56397,17.19,73946.5,-2.83,-16.23,-13.73,0,*57
1496891283.41,56398,17.19,73946.5,-2.85,-16.27,-13.79,0,*50
1496891284.64,56399,17.19,73942.5,-2.83,-16.13,-13.51,0,*5A
1496891285.84,56400,17.19,73946.3,-2.83,-15.95,-13.47,0,*57
1496891287.06,56401,17.19,73946.5,-2.83,-15.89,-13.47,0,*5B
1496891288.31,56402,17.19,73946.3,-2.81,-15.85,-13.43,0,*52
1496891289.56,56403,17.19,73942.8,-2.81,-15.89,-13.43,0,*5F
1496891290.81,56404,17.19,73944.3,-2.81,-15.85,-13.47,0,*50
1496891292.03,56405,17.19,73946.0,-2.81,-16.03,-13.47,0,*5C
1496891293.28,56406,17.19,73946.0,-2.81,-15.89,-13.47,0,*5E
1496891294.49,56407,17.19,73946.0,-2.81,-15.95,-13.47,0,*52
1496891295.72,56408,17.19,73946.0,-2.81,-16.03,-13.55,0,*52